Wilmington, OH

1:01 PM EDT on October 21, 2017 (GMT -0400)
Airborne

Weather History for KILN - November, 2012

Change the Weather History Date:

Saturday, November 24, 2012

  Actual Average (KFFO) Record (KFFO)
Temperature  
Mean Temperature 28 °F -  
Max Temperature 30 °F 47 °F 64 °F (2001)
Min Temperature 25 °F 31 °F 14 °F (2005)
Degree Days  
Heating Degree Days 37    
Moisture  
Dew Point 20 °F    
Average Humidity 68    
Maximum Humidity 75    
Minimum Humidity 60    
Precipitation  
Precipitation 0.00 in - - ()
Sea Level Pressure  
Sea Level Pressure 30.22 in    
Wind  
Wind Speed 10 mph (West)    
Max Wind Speed 13 mph    
Max Gust Speed -    
Visibility 10 miles    
Events Snow    
Averages and records for this station are not official NWS values.
T = Trace of Precipitation, MM = Missing Value Source: NWS Daily Summary

Daily Weather History Graph

Daily Weather History Graph

Search for Another Location

Airport or City:

Trip Planner

Search our weather history database for the weather conditions in past years. The results will help you decide how hot, cold, wet, or windy it might be!

Date:

Astronomy

Nov. 24, 2012 Rise Set
Actual Time 7:29 AM EST 5:14 PM EST
Civil Twilight 7:00 AM EST 5:43 PM EST
Nautical Twilight 6:27 AM EST 6:16 PM EST
Astronomical Twilight 5:55 AM EST 6:48 PM EST
Moon 2:57 PM EST (11/24) 3:46 AM EST (11/24)
Length of Visible Light 10h 43m
Length of Day
9h 44m
Waxing Gibbous, 87% of the Moon is Illuminated
Nov 24
Waxing Gibbous
Nov 28
Full
Dec 6
Last Quarter
Dec 13
New
Dec 20
First Quarter

Hourly Weather History & Observations

Time (EST) Temp. Windchill Dew Point Humidity Pressure Visibility Wind Dir Wind Speed Gust Speed Precip Events Conditions
12:54 AM 28.9 °F 20.4 °F 18.0 °F 64% 30.20 in 9.0 mi WNW 9.2 mph - 0.00 in Snow Light Snow
1:54 AM 28.9 °F 19.8 °F 19.0 °F 67% 30.19 in 9.0 mi West 10.4 mph - 0.00 in Snow Light Snow
2:54 AM 28.9 °F 20.4 °F 19.0 °F 67% 30.20 in 9.0 mi West 9.2 mph - 0.00 in Snow Light Snow
3:54 AM 28.9 °F 19.2 °F 19.9 °F 69% 30.20 in 9.0 mi West 11.5 mph - 0.00 in Snow Light Snow
4:54 AM 28.0 °F 17.5 °F 19.9 °F 72% 30.20 in 9.0 mi West 12.7 mph - 0.00 in Snow Light Snow
5:46 AM 28.4 °F 19.1 °F 19.4 °F 69% 30.14 in 9.0 mi West 10.4 mph - 0.00 in Snow Light Snow
5:54 AM 28.0 °F 18.1 °F 19.9 °F 72% 30.21 in 9.0 mi West 11.5 mph - 0.00 in Snow Light Snow
6:54 AM 28.0 °F 18.6 °F 19.9 °F 72% 30.23 in 9.0 mi West 10.4 mph - 0.00 in Snow Light Snow
7:54 AM 28.0 °F 18.1 °F 19.9 °F 72% 30.24 in 9.0 mi West 11.5 mph - 0.00 in Snow Light Snow
8:54 AM 28.0 °F 18.1 °F 19.9 °F 72% 30.25 in 9.0 mi West 11.5 mph - 0.00 in Snow Light Snow
9:54 AM 28.9 °F 18.6 °F 21.0 °F 72% 30.26 in 9.0 mi West 12.7 mph - 0.00 in Snow Light Snow
10:54 AM 30.0 °F 20.5 °F 21.0 °F 69% 30.27 in 9.0 mi West 11.5 mph - 0.00 in Snow Light Snow
11:54 AM 30.0 °F 21.1 °F 21.0 °F 69% 30.26 in 9.0 mi West 10.4 mph - 0.00 in Snow Light Snow
12:54 PM 30.0 °F 21.1 °F 21.9 °F 72% 30.24 in 10.0 mi WNW 10.4 mph - 0.00 in   Overcast
1:54 PM 30.0 °F 21.7 °F 21.0 °F 69% 30.23 in 10.0 mi West 9.2 mph - N/A   Overcast
2:54 PM 30.9 °F 22.2 °F 21.0 °F 67% 30.23 in 10.0 mi WNW 10.4 mph - N/A   Overcast
3:54 PM 30.9 °F 22.8 °F 21.0 °F 67% 30.23 in 10.0 mi West 9.2 mph - N/A   Overcast
4:54 PM 30.9 °F 22.8 °F 19.9 °F 64% 30.24 in 10.0 mi WNW 9.2 mph - N/A   Overcast
5:16 PM 30.2 °F 22.6 °F 19.4 °F 64% 30.15 in 10.0 mi WNW 8.1 mph - N/A   Overcast
5:54 PM 30.0 °F 22.4 °F 19.0 °F 64% 30.24 in 10.0 mi West 8.1 mph - N/A   Overcast
6:54 PM 30.0 °F 24.1 °F 19.0 °F 64% 30.24 in 10.0 mi WNW 5.8 mph - N/A   Overcast
7:45 PM 30.2 °F 24.3 °F 17.6 °F 60% 30.14 in 10.0 mi WNW 5.8 mph - 0.00 in   Overcast
7:54 PM 30.0 °F 25.2 °F 19.0 °F 64% 30.23 in 10.0 mi West 4.6 mph - 0.00 in   Overcast
8:54 PM 30.0 °F 23.2 °F 19.0 °F 64% 30.22 in 10.0 mi West 6.9 mph - N/A   Overcast
9:54 PM 30.0 °F 24.1 °F 18.0 °F 61% 30.20 in 10.0 mi WSW 5.8 mph - N/A   Overcast
10:54 PM 26.1 °F 18.4 °F 18.0 °F 71% 30.19 in 10.0 mi SW 6.9 mph - N/A   Clear
11:54 PM 25.0 °F 19.3 °F 18.0 °F 75% 30.19 in 10.0 mi SSW 4.6 mph - N/A   Clear